This demonstration page uses our WeatherBlox Daily Observations layout. Learn more.

Left ArrowRight Arrow

41.12389, -100.76542

Hourly Observations for July 5, 2018

Temp ( °F °C ) Dew Point ( °F °C ) Humidity (%) Winds ( mph kmh ) Pressure ( in mb ) Visibility ( mi km ) Precip ( " mm )
12:53 am 00:53 Mostly Clear 69 20.6 69 20.6 100 100 E 7 11 30.19 1022 10 16 0.00 0.00
1:53 am 01:53 Partly Cloudy 69 20.6 68 20 96 96 SE 12 19 30.23 1024 10 16 0.00 0.00
2:32 am 02:32 Mostly Clear 67 19.4 67 19.4 100 100 ESE 8 13 30.24 1024 10 16 0.00 0.00
2:53 am 02:53 Clear 67 19.4 67 19.4 100 100 ESE 12 19 30.24 1024 10 16 0.00 0.00
3:53 am 03:53 Mostly Clear 66 18.9 65 18.3 96 96 ESE 14 22 30.25 1024 10 16 0.00 0.00
4:05 am 04:05 Mostly Cloudy 66 18.9 66 18.9 100 100 ESE 15 24 30.24 1024 10 16 0.00 0.00
4:53 am 04:53 Cloudy 67 19.4 66 18.9 97 97 SE 12 19 30.28 1026 10 16 0.00 0.00
5:12 am 05:12 Cloudy 67 19.4 66 18.9 97 97 SE 14 22 30.27 1025 10 16 0.00 0.00
5:19 am 05:19 Cloudy 67 19.4 66 18.9 97 97 SSE 10 17 30.30 1026 10 16 0.00 0.00
5:40 am 05:40 Cloudy 67 19.4 66 18.9 97 97 SE 10 17 30.30 1026 10 16 0.00 0.00
5:53 am 05:53 Cloudy 67 19.4 66 18.9 97 97 SE 10 17 30.30 1026 10 16 0.00 0.00
6:53 am 06:53 Sunny 66 18.9 66 18.9 100 100 S 8 13 30.30 1026 10 16 0.00 0.00
7:53 am 07:53 Mostly Sunny 68 20 65 18.3 90 90 NE 3 6 30.35 1028 10 16 0.00 0.00
8:53 am 08:53 Cloudy 69 20.6 66 18.9 90 90 NNE 5 7 30.38 1029 10 16 0.00 0.00
9:53 am 09:53 Partly Cloudy 72 22.2 66 18.9 82 82 NE 6 9 30.39 1029 10 16 0.00 0.00
10:53 am 10:53 Sunny 76 24.4 67 19.4 74 74 NE 5 7 30.40 1029 10 16 0.00 0.00
11:53 am 11:53 Sunny 79 26.1 68 20 69 69 VRB 3 6 30.38 1029 10 16 0.00 0.00
12:53 pm 12:53 Sunny 82 27.8 69 20.6 65 65 VRB 3 6 30.38 1029 10 16 0.00 0.00
1:53 pm 13:53 Partly Cloudy 83 28.3 70 21.1 65 65 Calm 30.37 1029 10 16 0.00 0.00
2:53 pm 14:53 Partly Cloudy 85 29.4 70 21.1 61 61 S 8 13 30.37 1029 10 16 0.00 0.00
3:53 pm 15:53 Sunny 85 29.4 71 21.7 63 63 SE 10 17 30.36 1028 10 16 0.00 0.00
4:53 pm 16:53 Sunny 84 28.9 69 20.6 61 61 SE 12 19 30.35 1028 10 16 0.00 0.00
5:53 pm 17:53 Sunny 83 28.3 67 19.4 59 59 SE 14 22 30.35 1028 10 16 0.00 0.00
6:53 pm 18:53 Sunny 82 27.8 68 20 63 63 SE 12 19 30.35 1028 10 16 0.00 0.00
7:53 pm 19:53 Sunny 79 26.1 67 19.4 67 67 SSE 12 19 30.36 1028 10 16 0.00 0.00
8:53 pm 20:53 Sunny 76 24.4 68 20 77 77 SE 7 11 30.37 1029 10 16 0.00 0.00
9:53 pm 21:53 Clear 70 21.1 68 20 93 93 SE 6 9 30.39 1029 10 16 0.00 0.00
10:53 pm 22:53 Clear 68 20 67 19.4 96 96 SE 5 7 30.41 1030 10 16 0.00 0.00
11:53 pm 23:53 Clear 67 19.4 67 19.4 100 100 ESE 3 6 30.42 1030 10 16 0.00 0.00

Powered by AerisWeather